Location: Malanoce
(44.2500°N, 7.4667°E)
Time: 20:28:02
(UTC+00:00)

ATLAS 2AS CENTAUR R/B - Pass Details

Date: 17 November 2025
Orbit: 1047 x 1163 km, 63.7° (Epoch: 11 December)

Event Time Altitude Azimuth Distance (km) Brightness Sun altitude
Rises 16:25:02 0° 315° (NW) 3,869 6.0 -4.7°
Reaches altitude 10° 16:28:59 10° 336° (NNW) 2,894 5.0 -5.4°
Maximum altitude 16:33:02 16° 13° (NNE) 2,451 4.3 -6.0°
Drops below altitude 10° 16:37:03 10° 50° (NE) 2,868 4.4 -6.7°
Enters shadow 16:38:09 - 58° (ENE) 3,104 4.5 -6.9°
